#timestamp,LO_Frequency,Hit,StdDev 
1509793215.3,286047000.4,N
1509793235.2,286046999.9,N
1509793255.9,286047000.5,N
1509793275.7,286047002.0,N
1509793295.6,286047002.7,N
1509793315.4,286047000.6,N
1509793335.2,286047002.4,N
1509793355.1,286047002.5,N
1509793356.0,286047002.5,N
1509793375.8,286047000.5,N
1509793395.7,286046999.7,N
1509793415.5,286046998.1,N
1509793435.3,286046998.2,N
1509793455.2,286047001.0,N
1509793475.9,286047000.3,N
1509793495.7,286047000.7,N
1509793515.6,286046999.8,N
1509793535.4,286046998.2,N
1509793555.3,286047001.0,N
1509793575.1,286046998.1,N
1509793576.0,286046998.1,N
1509793595.8,286046998.8,N
1509793615.7,286046999.2,N
1509793635.5,286046999.1,N
1509793655.4,286047000.9,N
1509793675.2,286047001.1,N
1509793695.0,286046999.0,N
1509793695.9,286046999.0,N
1509793715.8,286046999.3,N
1509793735.6,286046998.7,N
1509793755.4,286046998.4,N
1509793775.3,286047000.7,N
1509793795.1,286046998.2,N
1509793815.9,286047001.0,N
1509793835.7,286047002.4,N
1509793855.5,286047002.3,N
1509793875.4,286047001.8,N
1509793895.2,286047000.4,N
1509793915.0,286046998.2,N
1509793915.9,286046998.2,N
1509793935.8,286046998.9,N
1509793955.6,286046998.8,N
1509793975.5,286046996.6,N
1509793995.3,286046997.1,N
1509794015.1,286046997.4,N
1509794035.9,286046997.4,N
1509794055.7,286046997.0,N
1509794075.5,286046997.3,N
1509794095.4,286046996.7,N
1509794115.2,286046996.7,N
1509794135.1,286046999.3,N
1509794136.0,286046999.3,N
1509794155.8,286046999.0,N
1509794175.6,286046997.3,N
1509794195.5,286046999.5,N
1509794215.3,286046998.7,N
1509794235.1,286046999.7,N
1509794255.9,286047001.0,N
1509794275.7,286046999.8,N
1509794295.6,286047000.7,N
1509794315.4,286046998.1,N
1509794335.2,286047000.9,N
1509794355.1,286046998.3,N
1509794356.0,286046998.3,N
1509794375.8,286046998.7,N
1509794395.6,286046998.1,N
1509794415.5,286046998.2,N
1509794435.3,286046998.4,N
1509794455.1,286046998.5,N
1509794475.9,286047001.1,N
1509794495.7,286047001.0,N
1509794515.6,286046998.1,N
1509794535.4,286047000.7,N
1509794555.2,286046998.3,N
1509794575.1,286046998.4,N
1509794576.0,286046998.4,N
1509794595.8,286046996.9,N
1509794615.6,286046998.1,N
1509794635.5,286047000.7,N
1509794655.3,286047001.0,N
1509794675.2,286047000.0,N
1509794695.9,286046999.7,N
1509794715.7,286047002.7,N
1509794735.6,286047002.6,N
1509794755.4,286046999.7,N
1509794775.2,286046998.2,N
1509794795.1,286046999.0,N
1509794796.0,286046999.0,N
1509794815.8,286046999.6,N
1509794835.7,286046998.4,N
1509794855.5,286046998.7,N
1509794875.3,286046998.5,N
1509794895.2,286046998.1,N
1509794915.0,286046999.0,N
1509794915.9,286046999.0,N
1509794935.7,286046998.5,N
1509794955.6,286046999.9,N
1509794975.4,286047000.2,N
1509794995.3,286047000.4,N
1509795015.1,286047000.7,N
1509795016.0,286047000.7,N
1509795035.8,286047000.5,N
1509795055.7,286047000.4,N
1509795075.5,286047000.3,N
1509795095.3,286047001.2,N
1509795115.2,286046998.6,N
1509795135.0,286047000.8,N
1509795135.9,286047000.8,N
1509795155.8,286046999.0,N
1509795175.6,286046998.6,N
1509795195.4,286046999.7,N
1509795215.3,286047001.9,N
1509795235.1,286047001.9,N
1509795255.9,286046999.8,N
1509795275.7,286046999.7,N
1509795295.5,286047002.5,N
1509795315.4,286047002.1,N
1509795335.2,286047000.9,N
1509795355.1,286046999.7,N
1509795356.0,286046999.7,N
1509795375.8,286047000.9,N
1509795395.6,286047002.1,N
1509795415.5,286047002.2,N
1509795435.3,286047002.6,N
1509795455.1,286047002.1,N
1509795475.9,286047002.2,N
1509795495.7,286047001.9,N
1509795515.6,286047001.8,N
1509795535.4,286047003.7,Y
1509795555.2,286046999.8,P
1509795575.1,286047000.8,N
1509795576.0,286047000.8,N
1509795595.8,286046998.9,N
1509795615.7,286046999.3,N
1509795635.5,286046999.2,N
1509795655.3,286046996.8,Y
1509795675.2,286046996.5,P
1509795695.0,286046998.4,N
1509795695.9,286046998.4,N
1509795715.7,286047000.8,N
1509795735.6,286046998.4,N
1509795755.4,286047001.0,N
1509795775.3,286046998.2,N
1509795795.1,286046998.1,N
1509795796.0,286046998.1,N
1509795815.8,286046998.5,N
1509795835.7,286047000.5,N
1509795855.5,286047001.0,N
1509795875.3,286046998.1,N
1509795895.2,286047002.6,N
1509795915.0,286047001.9,N
1509795915.9,286047001.9,N
1509795935.8,286047001.9,N
1509795955.6,286047001.6,N
1509795975.4,286046999.7,N
1509795995.3,286047000.5,N
1509796015.1,286047000.1,N
1509796016.0,286047000.1,N
1509796035.8,286047000.3,N
1509796055.7,286047001.0,N
1509796075.5,286046998.6,N
1509796095.4,286047000.3,N
1509796115.2,286047002.6,N
1509796135.0,286047002.6,N
1509796135.9,286047002.6,N
1509796155.8,286047000.3,N
1509796175.6,286047002.7,N
1509796195.4,286047001.3,N
1509796215.3,286046999.8,N
1509796235.1,286047000.6,N
1509796255.9,286047000.8,N
1509796275.7,286046998.2,N
1509796295.5,286046998.7,N
1509796315.4,286047000.3,N
1509796335.2,286047000.4,N
1509796355.0,286046998.1,N
1509796355.9,286046998.1,N
1509796375.8,286046998.1,N
1509796395.6,286047002.3,N
1509796415.5,286047002.6,N
1509796435.3,286047002.6,N
1509796455.1,286047001.8,N
1509796475.9,286047004.2,N
1509796495.7,286047001.9,N
1509796515.6,286047001.4,N
1509796535.4,286047003.5,N
1509796555.2,286047002.1,N
1509796575.1,286047004.3,N
1509796576.0,286047004.3,N
1509796595.8,286047004.4,N
1509796615.6,286047004.4,N
1509796635.5,286047003.0,N
1509796655.3,286047002.2,N
1509796675.2,286047004.4,N
1509796695.9,286047001.3,N
1509796715.7,286047001.4,N
1509796735.6,286047002.6,N
1509796755.4,286047002.1,N
1509796775.2,286047003.7,N
1509796795.1,286047004.1,N
1509796796.0,286047004.1,N
